Regional Weather Roundup
Issued by NWS

Home | Current Version | Previous Version | Text Only | Print | Product List | Glossary On
Versions: 1 2 3 4 5 6 7 8 9 10 11 12 13 14 15 16 17 18 19 20 21 22 23 24 25 26 27 28 29 30 31 32 33 34 35 36 37 38 39 40 41 42 43 44 45 46 47 48 49 50
000
ASUS44 KBMX 040010
RWRAL

ALABAMA REGIONAL WEATHER ROUNDUP
NATIONAL WEATHER SERVICE BIRMINGHAM AL
700 PM CDT FRI JUL 03 2015

NOTE: "FAIR" INDICATES FEW OR NO CLOUDS BELOW 12,000 FEET
WITH NO SIGNIFICANT WEATHER AND/OR OBSTRUCTIONS TO VISIBILITY.

THE REMARK "TC" DENOTES TEMPERATURE IN DEGREES CELSIUS.

ALZ001>011-014-016>018-020-040100-
NORTH ALABAMA

CITY           SKY/WX    TMP DP  RH WIND       PRES   REMARKS
MUSCLE SHOALS  CLOUDY    73  69  87 S9        29.94R
6HR MIN TEMP:  70; 6HR MAX TEMP:  74; 6HR PCP:  0.42;

HUNTSVILLE     CLOUDY    74  71  91 SW10      29.96S
6HR MIN TEMP:  73; 6HR MAX TEMP:  76; 6HR PCP:  0.03;

DECATUR        CLOUDY    72  69  90 SW10      29.96S
6HR MIN TEMP:  71; 6HR MAX TEMP:  74; 6HR PCP:  0.05;

HALEYVILLE     FAIR      71  71 100 SW3       30.00F
6HR MIN TEMP:  68; 6HR MAX TEMP:  72; 6HR PCP:  0.10;

GADSDEN        CLOUDY    82  66  57 SW3       29.97F
6HR MIN TEMP:  81; 6HR MAX TEMP:  84;

$$

ALZ012-013-022-023-030>036-040>044-040100-
WEST CENTRAL ALABAMA

CITY           SKY/WX    TMP DP  RH WIND       PRES   REMARKS
TUSCALOOSA     CLOUDY    77  74  90 CALM      29.96F
6HR MIN TEMP:  75; 6HR MAX TEMP:  89; 6HR PCP:  0.30;

$$

ALZ015-024>027-033>036-040>044-040100-
CENTRAL ALABAMA

CITY           SKY/WX    TMP DP  RH WIND       PRES   REMARKS
BIRMINGHAM     CLOUDY    78  70  76 CALM      29.99F
6HR MIN TEMP:  76; 6HR MAX TEMP:  80; 6HR PCP: TRACE;

MONTGOMERY     PTSUNNY   86  73  65 CALM      29.97F THUNDER HX  93
6HR MIN TEMP:  86; 6HR MAX TEMP:  92;

SHELBY CO ARPT CLOUDY    73  68  84 NW3       29.98F
6HR MIN TEMP:  73; 6HR MAX TEMP:  82; 6HR PCP:  0.02;

MAXWELL AFB    PTSUNNY   85  74  71 S5        29.97S HX  92
6HR MIN TEMP:  85; 6HR MAX TEMP:  91;

GREENVILLE     FAIR      85  73  67 SW3       29.99S THUNDER HX  91
6HR MIN TEMP:  85; 6HR MAX TEMP:  91;

$$

ALZ019-021-028-029-037-038-045>048-040100-
EAST CENTRAL ALABAMA

CITY           SKY/WX    TMP DP  RH WIND       PRES   REMARKS
ANNISTON       CLOUDY    76  71  85 S3        29.98F
6HR MIN TEMP:  75; 6HR MAX TEMP:  78; 6HR PCP:  0.02;

ALEXANDER CITY MOCLDY    79  71  76 NW3       30.01S THUNDER
6HR MIN TEMP:  79; 6HR MAX TEMP:  85;

AUBURN         MOCLDY    81  70  69 SW6       30.02S
6HR MIN TEMP:  81; 6HR MAX TEMP:  86;

$$

ALZ051>064-040100-
SOUTHWEST ALABAMA

CITY           SKY/WX    TMP DP  RH WIND       PRES   REMARKS
MOBILE         MOSUNNY   84  76  76 S10       30.01S HX  93
6HR MIN TEMP:  84; 6HR MAX TEMP:  92;

BROOKLEY FIELD MOSUNNY   86  75  69 SW6       30.01F HX  95
6HR MIN TEMP:  86; 6HR MAX TEMP:  92;

EVERGREEN      PTSUNNY   87  74  64 SW3       29.98F HX  95
6HR MIN TEMP:  87; 6HR MAX TEMP:  91;

$$

ALZ049-050-065>069-040100-
SOUTHEAST ALABAMA

CITY           SKY/WX    TMP DP  RH WIND       PRES   REMARKS
DOTHAN         CLEAR     87  73  62 S10       30.04S HX  94
6HR MIN TEMP:  88; 6HR MAX TEMP:  92;

OZARK          PTCLDY    88  72  58 SW22G29   30.01R THUNDER HX  94
6HR MIN TEMP:  88; 6HR MAX TEMP:  92;

TROY           CLEAR     85  74  69 S5        30.00S HX  92
6HR MIN TEMP:  85; 6HR MAX TEMP:  93;

EUFAULA        FAIR      85  70  60 CALM      29.99S
6HR MIN TEMP:  79; 6HR MAX TEMP:  95;

$$


USA.gov is the U.S. government's official web portal to all federal, state and local government web resources and services.